Year,Month,Day,Hour,Minute,Value (Times are PST for insolation in W/m^2)
2007,02,25,00,00,0.00
2007,02,25,00,01,0.00
2007,02,25,00,02,0.00
2007,02,25,00,03,0.00
2007,02,25,00,04,0.00
2007,02,25,00,05,0.00
2007,02,25,00,06,0.00
2007,02,25,00,07,0.00
2007,02,25,00,08,0.00
2007,02,25,00,09,0.00
2007,02,25,00,10,0.00
2007,02,25,00,11,0.00
2007,02,25,00,12,0.00
2007,02,25,00,13,0.00
2007,02,25,00,14,0.00
2007,02,25,00,15,0.00
2007,02,25,00,16,0.00
2007,02,25,00,17,0.00
2007,02,25,00,18,0.00
2007,02,25,00,19,0.00
2007,02,25,00,20,0.00
2007,02,25,00,21,0.00
2007,02,25,00,22,0.00
2007,02,25,00,23,0.00
2007,02,25,00,24,0.00
2007,02,25,00,25,0.00
2007,02,25,00,26,0.00
2007,02,25,00,27,0.00
2007,02,25,00,28,0.00
2007,02,25,00,29,0.00
2007,02,25,00,30,0.00
2007,02,25,00,31,0.00
2007,02,25,00,32,0.00
2007,02,25,00,33,0.00
2007,02,25,00,34,0.00
2007,02,25,00,35,0.00
2007,02,25,00,36,0.00
2007,02,25,00,37,0.00
2007,02,25,00,38,0.00
2007,02,25,00,39,0.00
2007,02,25,00,40,0.00
2007,02,25,00,41,0.00
2007,02,25,00,42,0.00
2007,02,25,00,43,0.00
2007,02,25,00,44,0.00
2007,02,25,00,45,0.00
2007,02,25,00,46,0.00
2007,02,25,00,47,0.00
2007,02,25,00,48,0.00
2007,02,25,00,49,0.00
2007,02,25,00,50,0.00
2007,02,25,00,51,0.00
2007,02,25,00,52,0.00
2007,02,25,00,53,0.00
2007,02,25,00,54,0.00
2007,02,25,00,55,0.00
2007,02,25,00,56,0.00
2007,02,25,00,57,0.00
2007,02,25,00,58,0.00
2007,02,25,00,59,0.00
2007,02,25,01,00,0.00
2007,02,25,01,01,0.00
2007,02,25,01,02,0.00
2007,02,25,01,03,0.00
2007,02,25,01,04,0.00
2007,02,25,01,05,0.00
2007,02,25,01,06,0.00
2007,02,25,01,07,0.00
2007,02,25,01,08,0.00
2007,02,25,01,09,0.00
2007,02,25,01,10,0.00
2007,02,25,01,11,0.00
2007,02,25,01,12,0.00
2007,02,25,01,13,0.00
2007,02,25,01,14,0.00
2007,02,25,01,15,0.00
2007,02,25,01,16,0.00
2007,02,25,01,17,0.00
2007,02,25,01,18,0.00
2007,02,25,01,19,0.00
2007,02,25,01,20,0.00
2007,02,25,01,21,0.00
2007,02,25,01,22,0.00
2007,02,25,01,23,0.00
2007,02,25,01,24,0.00
2007,02,25,01,25,0.00
2007,02,25,01,26,0.00
2007,02,25,01,27,0.00
2007,02,25,01,28,0.00
2007,02,25,01,29,0.00
2007,02,25,01,30,0.00
2007,02,25,01,31,0.00
2007,02,25,01,32,0.00
2007,02,25,01,33,0.00
2007,02,25,01,34,0.00
2007,02,25,01,35,0.00
2007,02,25,01,36,0.00
2007,02,25,01,37,0.00
2007,02,25,01,38,0.00
2007,02,25,01,39,0.00
2007,02,25,01,40,0.00
2007,02,25,01,41,0.00
2007,02,25,01,42,0.00
2007,02,25,01,43,0.00
2007,02,25,01,44,0.00
2007,02,25,01,45,0.00
2007,02,25,01,46,0.00
2007,02,25,01,47,0.00
2007,02,25,01,48,0.00
2007,02,25,01,49,0.00
2007,02,25,01,50,0.00
2007,02,25,01,51,0.00
2007,02,25,01,52,0.00
2007,02,25,01,53,0.00
2007,02,25,01,54,0.00
2007,02,25,01,55,0.00
2007,02,25,01,56,0.00
2007,02,25,01,57,0.00
2007,02,25,01,58,0.00
2007,02,25,01,59,0.00
2007,02,25,02,00,0.00
2007,02,25,02,01,0.00
2007,02,25,02,02,0.00
2007,02,25,02,03,0.00
2007,02,25,02,04,0.00
2007,02,25,02,05,0.00
2007,02,25,02,06,0.00
2007,02,25,02,07,0.00
2007,02,25,02,08,0.00
2007,02,25,02,09,0.00
2007,02,25,02,10,0.00
2007,02,25,02,11,0.00
2007,02,25,02,12,0.00
2007,02,25,02,13,0.00
2007,02,25,02,14,0.00
2007,02,25,02,15,0.00
2007,02,25,02,16,0.00
2007,02,25,02,17,0.00
2007,02,25,02,18,0.00
2007,02,25,02,19,0.00
2007,02,25,02,20,0.00
2007,02,25,02,21,0.00
2007,02,25,02,22,0.00
2007,02,25,02,23,0.00
2007,02,25,02,24,0.00
2007,02,25,02,25,0.00
2007,02,25,02,26,0.00
2007,02,25,02,27,0.00
2007,02,25,02,28,0.00
2007,02,25,02,29,0.00
2007,02,25,02,30,0.00
2007,02,25,02,31,0.00
2007,02,25,02,32,0.00
2007,02,25,02,33,0.00
2007,02,25,02,34,0.00
2007,02,25,02,35,0.00
2007,02,25,02,36,0.00
2007,02,25,02,37,0.00
2007,02,25,02,38,0.00
2007,02,25,02,39,0.00
2007,02,25,02,40,0.00
2007,02,25,02,41,0.00
2007,02,25,02,42,0.00
2007,02,25,02,43,0.00
2007,02,25,02,44,0.00
2007,02,25,02,45,0.00
2007,02,25,02,46,0.00
2007,02,25,02,47,0.00
2007,02,25,02,48,0.00
2007,02,25,02,49,0.00
2007,02,25,02,50,0.00
2007,02,25,02,51,0.00
2007,02,25,02,52,0.00
2007,02,25,02,53,0.00
2007,02,25,02,54,0.00
2007,02,25,02,55,0.00
2007,02,25,02,56,0.00
2007,02,25,02,57,0.00
2007,02,25,02,58,0.00
2007,02,25,02,59,0.00
2007,02,25,03,00,0.00
2007,02,25,03,01,0.00
2007,02,25,03,02,0.00
2007,02,25,03,03,0.00
2007,02,25,03,04,0.00
2007,02,25,03,05,0.00
2007,02,25,03,06,0.00
2007,02,25,03,07,0.00
2007,02,25,03,08,0.00
2007,02,25,03,09,0.00
2007,02,25,03,10,0.00
2007,02,25,03,11,0.00
2007,02,25,03,12,0.00
2007,02,25,03,13,0.00
2007,02,25,03,14,0.00
2007,02,25,03,15,0.00
2007,02,25,03,16,0.00
2007,02,25,03,17,0.00
2007,02,25,03,18,0.00
2007,02,25,03,19,0.00
2007,02,25,03,20,0.00
2007,02,25,03,21,0.00
2007,02,25,03,22,0.00
2007,02,25,03,23,0.00
2007,02,25,03,24,0.00
2007,02,25,03,25,0.00
2007,02,25,03,26,0.00
2007,02,25,03,27,0.00
2007,02,25,03,28,0.00
2007,02,25,03,29,0.00
2007,02,25,03,30,0.00
2007,02,25,03,31,0.00
2007,02,25,03,32,0.00
2007,02,25,03,33,0.00
2007,02,25,03,34,0.00
2007,02,25,03,35,0.00
2007,02,25,03,36,0.00
2007,02,25,03,37,0.00
2007,02,25,03,38,0.00
2007,02,25,03,39,0.00
2007,02,25,03,40,0.00
2007,02,25,03,41,0.00
2007,02,25,03,42,0.00
2007,02,25,03,43,0.00
2007,02,25,03,44,0.00
2007,02,25,03,45,0.00
2007,02,25,03,46,0.00
2007,02,25,03,47,0.00
2007,02,25,03,48,0.00
2007,02,25,03,49,0.00
2007,02,25,03,50,0.00
2007,02,25,03,51,0.00
2007,02,25,03,52,0.00
2007,02,25,03,53,0.00
2007,02,25,03,54,0.00
2007,02,25,03,55,0.00
2007,02,25,03,56,0.00
2007,02,25,03,57,0.00
2007,02,25,03,58,0.00
2007,02,25,03,59,0.00
2007,02,25,04,00,0.00
2007,02,25,04,01,0.00
2007,02,25,04,02,0.00
2007,02,25,04,03,0.00
2007,02,25,04,04,0.00
2007,02,25,04,05,0.00
2007,02,25,04,06,0.00
2007,02,25,04,07,0.00
2007,02,25,04,08,0.00
2007,02,25,04,09,0.00
2007,02,25,04,10,0.00
2007,02,25,04,11,0.00
2007,02,25,04,12,0.00
2007,02,25,04,13,0.00
2007,02,25,04,14,0.00
2007,02,25,04,15,0.00
2007,02,25,04,16,0.00
2007,02,25,04,17,0.00
2007,02,25,04,18,0.00
2007,02,25,04,19,0.00
2007,02,25,04,20,0.00
2007,02,25,04,21,0.00
2007,02,25,04,22,0.00
2007,02,25,04,23,0.00
2007,02,25,04,24,0.00
2007,02,25,04,25,0.00
2007,02,25,04,26,0.00
2007,02,25,04,27,0.00
2007,02,25,04,28,0.00
2007,02,25,04,29,0.00
2007,02,25,04,30,0.00
2007,02,25,04,31,0.00
2007,02,25,04,32,0.00
2007,02,25,04,33,0.00
2007,02,25,04,34,0.00
2007,02,25,04,35,0.00
2007,02,25,04,36,0.00
2007,02,25,04,37,0.00
2007,02,25,04,38,0.00
2007,02,25,04,39,0.00
2007,02,25,04,40,0.00
2007,02,25,04,41,0.00
2007,02,25,04,42,0.00
2007,02,25,04,43,0.00
2007,02,25,04,44,0.00
2007,02,25,04,45,0.00
2007,02,25,04,46,0.00
2007,02,25,04,47,0.00
2007,02,25,04,48,0.00
2007,02,25,04,49,0.00
2007,02,25,04,50,0.00
2007,02,25,04,51,0.00
2007,02,25,04,52,0.00
2007,02,25,04,53,0.00
2007,02,25,04,54,0.00
2007,02,25,04,55,0.00
2007,02,25,04,56,0.00
2007,02,25,04,57,0.00
2007,02,25,04,58,0.00
2007,02,25,04,59,0.00
2007,02,25,05,00,0.00
2007,02,25,05,01,0.00
2007,02,25,05,02,0.00
2007,02,25,05,03,0.00
2007,02,25,05,04,0.00
2007,02,25,05,05,0.00
2007,02,25,05,06,0.00
2007,02,25,05,07,0.00
2007,02,25,05,08,0.00
2007,02,25,05,09,0.00
2007,02,25,05,10,0.00
2007,02,25,05,11,0.00
2007,02,25,05,12,0.00
2007,02,25,05,13,0.00
2007,02,25,05,14,0.00
2007,02,25,05,15,0.00
2007,02,25,05,16,0.00
2007,02,25,05,17,0.00
2007,02,25,05,18,0.00
2007,02,25,05,19,0.00
2007,02,25,05,20,0.00
2007,02,25,05,21,0.00
2007,02,25,05,22,0.00
2007,02,25,05,23,0.00
2007,02,25,05,24,0.00
2007,02,25,05,25,0.00
2007,02,25,05,26,0.00
2007,02,25,05,27,0.00
2007,02,25,05,28,0.00
2007,02,25,05,29,0.00
2007,02,25,05,30,0.00
2007,02,25,05,31,0.00
2007,02,25,05,32,0.00
2007,02,25,05,33,0.00
2007,02,25,05,34,0.00
2007,02,25,05,35,0.00
2007,02,25,05,36,0.00
2007,02,25,05,37,0.00
2007,02,25,05,38,0.00
2007,02,25,05,39,0.00
2007,02,25,05,40,0.00
2007,02,25,05,41,0.00
2007,02,25,05,42,0.00
2007,02,25,05,43,0.00
2007,02,25,05,44,0.00
2007,02,25,05,45,0.00
2007,02,25,05,46,0.00
2007,02,25,05,47,0.00
2007,02,25,05,48,0.00
2007,02,25,05,49,0.00
2007,02,25,05,50,0.00
2007,02,25,05,51,0.00
2007,02,25,05,52,0.00
2007,02,25,05,53,0.00
2007,02,25,05,54,0.00
2007,02,25,05,55,0.00
2007,02,25,05,56,0.00
2007,02,25,05,57,0.00
2007,02,25,05,58,0.00
2007,02,25,05,59,0.00
2007,02,25,06,00,0.00
2007,02,25,06,01,0.00
2007,02,25,06,02,0.00
2007,02,25,06,03,0.00
2007,02,25,06,04,0.00
2007,02,25,06,05,0.00
2007,02,25,06,06,0.00
2007,02,25,06,07,0.00
2007,02,25,06,08,0.00
2007,02,25,06,09,0.00
2007,02,25,06,10,0.00
2007,02,25,06,11,0.00
2007,02,25,06,12,0.00
2007,02,25,06,13,0.00
2007,02,25,06,14,0.00
2007,02,25,06,15,0.00
2007,02,25,06,16,0.00
2007,02,25,06,17,0.00
2007,02,25,06,18,0.00
2007,02,25,06,19,0.00
2007,02,25,06,20,0.00
2007,02,25,06,21,0.00
2007,02,25,06,22,0.00
2007,02,25,06,23,0.00
2007,02,25,06,24,0.00
2007,02,25,06,25,0.00
2007,02,25,06,26,0.00
2007,02,25,06,27,0.00
2007,02,25,06,28,0.00
2007,02,25,06,29,0.00
2007,02,25,06,30,0.00
2007,02,25,06,31,0.00
2007,02,25,06,32,0.00
2007,02,25,06,33,0.00
2007,02,25,06,34,0.00
2007,02,25,06,35,0.00
2007,02,25,06,36,0.00
2007,02,25,06,37,0.00
2007,02,25,06,38,0.00
2007,02,25,06,39,0.00
2007,02,25,06,40,0.00
2007,02,25,06,41,0.00
2007,02,25,06,42,0.00
2007,02,25,06,43,0.00
2007,02,25,06,44,0.00
2007,02,25,06,45,0.00
2007,02,25,06,46,0.00
2007,02,25,06,47,0.00
2007,02,25,06,48,0.00
2007,02,25,06,49,0.00
2007,02,25,06,50,0.00
2007,02,25,06,51,0.00
2007,02,25,06,52,0.00
2007,02,25,06,53,0.00
2007,02,25,06,54,0.00
2007,02,25,06,55,0.00
2007,02,25,06,56,0.00
2007,02,25,06,57,0.00
2007,02,25,06,58,0.00
2007,02,25,06,59,0.00
2007,02,25,07,00,0.00
2007,02,25,07,01,0.00
2007,02,25,07,02,0.00
2007,02,25,07,03,0.00
2007,02,25,07,04,0.00
2007,02,25,07,05,0.00
2007,02,25,07,06,0.00
2007,02,25,07,07,0.00
2007,02,25,07,08,0.00
2007,02,25,07,09,0.00
2007,02,25,07,10,0.00
2007,02,25,07,11,0.00
2007,02,25,07,12,0.00
2007,02,25,07,13,0.00
2007,02,25,07,14,0.00
2007,02,25,07,15,0.00
2007,02,25,07,16,0.00
2007,02,25,07,17,0.00
2007,02,25,07,18,0.00
2007,02,25,07,19,0.00
2007,02,25,07,20,0.00
2007,02,25,07,21,0.00
2007,02,25,07,22,0.00
2007,02,25,07,23,0.00
2007,02,25,07,24,0.00
2007,02,25,07,25,0.00
2007,02,25,07,26,0.00
2007,02,25,07,27,2.40
2007,02,25,07,28,5.00
2007,02,25,07,29,5.00
2007,02,25,07,30,6.60
2007,02,25,07,31,7.00
2007,02,25,07,32,7.00
2007,02,25,07,33,7.00
2007,02,25,07,34,7.70
2007,02,25,07,35,9.00
2007,02,25,07,36,9.00
2007,02,25,07,37,9.00
2007,02,25,07,38,9.00
2007,02,25,07,39,9.00
2007,02,25,07,40,8.90
2007,02,25,07,41,7.00
2007,02,25,07,42,7.50
2007,02,25,07,43,9.00
2007,02,25,07,44,10.00
2007,02,25,07,45,11.00
2007,02,25,07,46,11.70
2007,02,25,07,47,12.00
2007,02,25,07,48,12.00
2007,02,25,07,49,12.20
2007,02,25,07,50,14.40
2007,02,25,07,51,15.30
2007,02,25,07,52,14.00
2007,02,25,07,53,13.00
2007,02,25,07,54,13.20
2007,02,25,07,55,14.00
2007,02,25,07,56,15.60
2007,02,25,07,57,16.00
2007,02,25,07,58,16.30
2007,02,25,07,59,18.00
2007,02,25,08,00,17.30
2007,02,25,08,01,16.00
2007,02,25,08,02,16.00
2007,02,25,08,03,14.70
2007,02,25,08,04,14.00
2007,02,25,08,05,15.70
2007,02,25,08,06,16.10
2007,02,25,08,07,18.10
2007,02,25,08,08,18.70
2007,02,25,08,09,18.00
2007,02,25,08,10,17.00
2007,02,25,08,11,16.00
2007,02,25,08,12,16.00
2007,02,25,08,13,21.60
2007,02,25,08,14,25.60
2007,02,25,08,15,24.80
2007,02,25,08,16,23.00
2007,02,25,08,17,21.80
2007,02,25,08,18,19.00
2007,02,25,08,19,20.00
2007,02,25,08,20,21.00
2007,02,25,08,21,21.00
2007,02,25,08,22,21.00
2007,02,25,08,23,18.20
2007,02,25,08,24,15.70
2007,02,25,08,25,13.40
2007,02,25,08,26,12.80
2007,02,25,08,27,14.00
2007,02,25,08,28,14.00
2007,02,25,08,29,12.60
2007,02,25,08,30,12.00
2007,02,25,08,31,12.00
2007,02,25,08,32,14.00
2007,02,25,08,33,14.40
2007,02,25,08,34,16.60
2007,02,25,08,35,18.00
2007,02,25,08,36,18.00
2007,02,25,08,37,18.60
2007,02,25,08,38,21.80
2007,02,25,08,39,27.00
2007,02,25,08,40,25.20
2007,02,25,08,41,26.00
2007,02,25,08,42,26.00
2007,02,25,08,43,25.60
2007,02,25,08,44,25.00
2007,02,25,08,45,25.50
2007,02,25,08,46,20.80
2007,02,25,08,47,18.80
2007,02,25,08,48,19.00
2007,02,25,08,49,20.90
2007,02,25,08,50,20.40
2007,02,25,08,51,18.00
2007,02,25,08,52,19.80
2007,02,25,08,53,26.50
2007,02,25,08,54,30.00
2007,02,25,08,55,30.00
2007,02,25,08,56,27.00
2007,02,25,08,57,25.10
2007,02,25,08,58,25.00
2007,02,25,08,59,25.20
2007,02,25,09,00,26.00
2007,02,25,09,01,28.50
2007,02,25,09,02,33.60
2007,02,25,09,03,36.30
2007,02,25,09,04,37.00
2007,02,25,09,05,31.00
2007,02,25,09,06,35.10
2007,02,25,09,07,42.00
2007,02,25,09,08,41.10
2007,02,25,09,09,39.40
2007,02,25,09,10,43.50
2007,02,25,09,11,46.40
2007,02,25,09,12,46.00
2007,02,25,09,13,46.00
2007,02,25,09,14,42.60
2007,02,25,09,15,38.60
2007,02,25,09,16,36.10
2007,02,25,09,17,43.20
2007,02,25,09,18,43.20
2007,02,25,09,19,39.00
2007,02,25,09,20,39.60
2007,02,25,09,21,40.00
2007,02,25,09,22,43.20
2007,02,25,09,23,39.50
2007,02,25,09,24,38.10
2007,02,25,09,25,32.20
2007,02,25,09,26,30.70
2007,02,25,09,27,32.50
2007,02,25,09,28,33.00
2007,02,25,09,29,32.30
2007,02,25,09,30,32.80
2007,02,25,09,31,36.40
2007,02,25,09,32,35.10
2007,02,25,09,33,35.00
2007,02,25,09,34,35.50
2007,02,25,09,35,38.00
2007,02,25,09,36,40.00
2007,02,25,09,37,40.00
2007,02,25,09,38,44.90
2007,02,25,09,39,52.60
2007,02,25,09,40,54.00
2007,02,25,09,41,57.60
2007,02,25,09,42,54.40
2007,02,25,09,43,56.00
2007,02,25,09,44,66.00
2007,02,25,09,45,88.00
2007,02,25,09,46,102.20
2007,02,25,09,47,112.20
2007,02,25,09,48,123.30
2007,02,25,09,49,123.40
2007,02,25,09,50,127.60
2007,02,25,09,51,123.20
2007,02,25,09,52,118.70
2007,02,25,09,53,120.00
2007,02,25,09,54,117.80
2007,02,25,09,55,123.30
2007,02,25,09,56,129.40
2007,02,25,09,57,128.30
2007,02,25,09,58,127.20
2007,02,25,09,59,120.60
2007,02,25,10,00,124.20
2007,02,25,10,01,126.10
2007,02,25,10,02,123.90
2007,02,25,10,03,114.60
2007,02,25,10,04,111.80
2007,02,25,10,05,111.40
2007,02,25,10,06,102.40
2007,02,25,10,07,99.90
2007,02,25,10,08,83.50
2007,02,25,10,09,71.40
2007,02,25,10,10,77.20
2007,02,25,10,11,81.00
2007,02,25,10,12,82.90
2007,02,25,10,13,87.00
2007,02,25,10,14,88.00
2007,02,25,10,15,99.30
2007,02,25,10,16,98.00
2007,02,25,10,17,95.90
2007,02,25,10,18,92.60
2007,02,25,10,19,95.00
2007,02,25,10,20,98.00
2007,02,25,10,21,102.80
2007,02,25,10,22,104.80
2007,02,25,10,23,113.00
2007,02,25,10,24,121.00
2007,02,25,10,25,120.40
2007,02,25,10,26,118.00
2007,02,25,10,27,116.00
2007,02,25,10,28,110.00
2007,02,25,10,29,107.00
2007,02,25,10,30,105.60
2007,02,25,10,31,106.60
2007,02,25,10,32,100.70
2007,02,25,10,33,99.70
2007,02,25,10,34,95.90
2007,02,25,10,35,81.10
2007,02,25,10,36,67.60
2007,02,25,10,37,62.20
2007,02,25,10,38,57.50
2007,02,25,10,39,56.00
2007,02,25,10,40,56.00
2007,02,25,10,41,63.60
2007,02,25,10,42,69.00
2007,02,25,10,43,69.90
2007,02,25,10,44,72.00
2007,02,25,10,45,68.20
2007,02,25,10,46,65.00
2007,02,25,10,47,63.60
2007,02,25,10,48,60.60
2007,02,25,10,49,47.40
2007,02,25,10,50,42.80
2007,02,25,10,51,47.00
2007,02,25,10,52,44.20
2007,02,25,10,53,39.00
2007,02,25,10,54,43.00
2007,02,25,10,55,45.20
2007,02,25,10,56,42.60
2007,02,25,10,57,45.40
2007,02,25,10,58,48.70
2007,02,25,10,59,47.00
2007,02,25,11,00,45.80
2007,02,25,11,01,41.30
2007,02,25,11,02,42.90
2007,02,25,11,03,50.80
2007,02,25,11,04,49.50
2007,02,25,11,05,47.00
2007,02,25,11,06,47.00
2007,02,25,11,07,49.20
2007,02,25,11,08,69.80
2007,02,25,11,09,68.40
2007,02,25,11,10,64.80
2007,02,25,11,11,62.00
2007,02,25,11,12,57.00
2007,02,25,11,13,54.00
2007,02,25,11,14,59.10
2007,02,25,11,15,60.00
2007,02,25,11,16,61.00
2007,02,25,11,17,70.00
2007,02,25,11,18,84.90
2007,02,25,11,19,98.90
2007,02,25,11,20,105.80
2007,02,25,11,21,111.20
2007,02,25,11,22,115.20
2007,02,25,11,23,126.80
2007,02,25,11,24,129.90
2007,02,25,11,25,132.70
2007,02,25,11,26,147.50
2007,02,25,11,27,145.20
2007,02,25,11,28,140.70
2007,02,25,11,29,131.60
2007,02,25,11,30,128.00
2007,02,25,11,31,131.20
2007,02,25,11,32,132.00
2007,02,25,11,33,117.80
2007,02,25,11,34,118.80
2007,02,25,11,35,130.00
2007,02,25,11,36,134.90
2007,02,25,11,37,139.90
2007,02,25,11,38,135.80
2007,02,25,11,39,131.00
2007,02,25,11,40,128.30
2007,02,25,11,41,128.70
2007,02,25,11,42,137.80
2007,02,25,11,43,154.80
2007,02,25,11,44,163.90
2007,02,25,11,45,171.00
2007,02,25,11,46,166.40
2007,02,25,11,47,157.40
2007,02,25,11,48,153.40
2007,02,25,11,49,153.00
2007,02,25,11,50,153.00
2007,02,25,11,51,158.50
2007,02,25,11,52,173.60
2007,02,25,11,53,161.80
2007,02,25,11,54,143.00
2007,02,25,11,55,124.80
2007,02,25,11,56,108.20
2007,02,25,11,57,106.40
2007,02,25,11,58,119.50
2007,02,25,11,59,135.60
2007,02,25,12,00,137.70
2007,02,25,12,01,131.70
2007,02,25,12,02,127.00
2007,02,25,12,03,114.30
2007,02,25,12,04,98.20
2007,02,25,12,05,91.20
2007,02,25,12,06,86.60
2007,02,25,12,07,84.50
2007,02,25,12,08,88.00
2007,02,25,12,09,90.10
2007,02,25,12,10,95.00
2007,02,25,12,11,103.00
2007,02,25,12,12,111.00
2007,02,25,12,13,111.00
2007,02,25,12,14,107.60
2007,02,25,12,15,107.60
2007,02,25,12,16,117.40
2007,02,25,12,17,112.50
2007,02,25,12,18,110.80
2007,02,25,12,19,128.90
2007,02,25,12,20,139.00
2007,02,25,12,21,117.30
2007,02,25,12,22,95.00
2007,02,25,12,23,91.00
2007,02,25,12,24,89.90
2007,02,25,12,25,91.20
2007,02,25,12,26,107.00
2007,02,25,12,27,110.90
2007,02,25,12,28,107.90
2007,02,25,12,29,117.80
2007,02,25,12,30,146.70
2007,02,25,12,31,161.20
2007,02,25,12,32,148.60
2007,02,25,12,33,126.30
2007,02,25,12,34,117.70
2007,02,25,12,35,103.60
2007,02,25,12,36,87.80
2007,02,25,12,37,82.00
2007,02,25,12,38,78.50
2007,02,25,12,39,81.20
2007,02,25,12,40,94.20
2007,02,25,12,41,91.60
2007,02,25,12,42,82.10
2007,02,25,12,43,88.40
2007,02,25,12,44,88.70
2007,02,25,12,45,83.80
2007,02,25,12,46,81.00
2007,02,25,12,47,76.40
2007,02,25,12,48,74.00
2007,02,25,12,49,74.00
2007,02,25,12,50,77.40
2007,02,25,12,51,83.00
2007,02,25,12,52,82.50
2007,02,25,12,53,81.00
2007,02,25,12,54,80.00
2007,02,25,12,55,79.00
2007,02,25,12,56,75.30
2007,02,25,12,57,62.80
2007,02,25,12,58,49.60
2007,02,25,12,59,49.00
2007,02,25,13,00,50.00
2007,02,25,13,01,54.00
2007,02,25,13,02,62.10
2007,02,25,13,03,74.20
2007,02,25,13,04,76.00
2007,02,25,13,05,74.50
2007,02,25,13,06,72.40
2007,02,25,13,07,70.10
2007,02,25,13,08,70.00
2007,02,25,13,09,64.00
2007,02,25,13,10,44.60
2007,02,25,13,11,41.00
2007,02,25,13,12,40.00
2007,02,25,13,13,35.50
2007,02,25,13,14,36.00
2007,02,25,13,15,48.90
2007,02,25,13,16,71.80
2007,02,25,13,17,91.80
2007,02,25,13,18,111.80
2007,02,25,13,19,123.00
2007,02,25,13,20,113.00
2007,02,25,13,21,101.60
2007,02,25,13,22,100.00
2007,02,25,13,23,107.20
2007,02,25,13,24,91.10
2007,02,25,13,25,74.30
2007,02,25,13,26,66.00
2007,02,25,13,27,74.50
2007,02,25,13,28,87.20
2007,02,25,13,29,91.00
2007,02,25,13,30,86.40
2007,02,25,13,31,76.50
2007,02,25,13,32,74.00
2007,02,25,13,33,63.00
2007,02,25,13,34,53.00
2007,02,25,13,35,49.10
2007,02,25,13,36,38.80
2007,02,25,13,37,37.00
2007,02,25,13,38,38.10
2007,02,25,13,39,37.60
2007,02,25,13,40,37.00
2007,02,25,13,41,32.50
2007,02,25,13,42,31.60
2007,02,25,13,43,28.00
2007,02,25,13,44,28.00
2007,02,25,13,45,28.00
2007,02,25,13,46,28.00
2007,02,25,13,47,26.00
2007,02,25,13,48,25.80
2007,02,25,13,49,27.70
2007,02,25,13,50,29.80
2007,02,25,13,51,28.30
2007,02,25,13,52,30.50
2007,02,25,13,53,33.00
2007,02,25,13,54,37.20
2007,02,25,13,55,46.30
2007,02,25,13,56,58.50
2007,02,25,13,57,71.00
2007,02,25,13,58,82.60
2007,02,25,13,59,104.90
2007,02,25,14,00,127.80
2007,02,25,14,01,169.10
2007,02,25,14,02,218.40
2007,02,25,14,03,243.00
2007,02,25,14,04,243.00
2007,02,25,14,05,273.80
2007,02,25,14,06,287.00
2007,02,25,14,07,287.00
2007,02,25,14,08,308.60
2007,02,25,14,09,428.30
2007,02,25,14,10,409.60
2007,02,25,14,11,387.80
2007,02,25,14,12,395.10
2007,02,25,14,13,408.00
2007,02,25,14,14,399.00
2007,02,25,14,15,396.00
2007,02,25,14,16,430.40
2007,02,25,14,17,484.80
2007,02,25,14,18,472.80
2007,02,25,14,19,480.70
2007,02,25,14,20,475.80
2007,02,25,14,21,482.00
2007,02,25,14,22,482.00
2007,02,25,14,23,512.00
2007,02,25,14,24,493.40
2007,02,25,14,25,446.00
2007,02,25,14,26,404.90
2007,02,25,14,27,230.00
2007,02,25,14,28,260.10
2007,02,25,14,29,281.60
2007,02,25,14,30,269.00
2007,02,25,14,31,269.00
2007,02,25,14,32,269.00
2007,02,25,14,33,272.60
2007,02,25,14,34,341.00
2007,02,25,14,35,307.60
2007,02,25,14,36,203.00
2007,02,25,14,37,185.50
2007,02,25,14,38,169.80
2007,02,25,14,39,152.00
2007,02,25,14,40,149.00
2007,02,25,14,41,131.90
2007,02,25,14,42,126.30
2007,02,25,14,43,119.60
2007,02,25,14,44,118.00
2007,02,25,14,45,118.80
2007,02,25,14,46,120.00
2007,02,25,14,47,120.00
2007,02,25,14,48,120.00
2007,02,25,14,49,120.00
2007,02,25,14,50,131.10
2007,02,25,14,51,138.60
2007,02,25,14,52,151.00
2007,02,25,14,53,160.00
2007,02,25,14,54,160.00
2007,02,25,14,55,160.00
2007,02,25,14,56,160.00
2007,02,25,14,57,115.00
2007,02,25,14,58,113.60
2007,02,25,14,59,144.50
2007,02,25,15,00,144.70
2007,02,25,15,01,135.40
2007,02,25,15,02,125.40
2007,02,25,15,03,123.00
2007,02,25,15,04,121.20
2007,02,25,15,05,120.00
2007,02,25,15,06,144.80
2007,02,25,15,07,151.00
2007,02,25,15,08,190.00
2007,02,25,15,09,181.20
2007,02,25,15,10,148.70
2007,02,25,15,11,179.40
2007,02,25,15,12,204.00
2007,02,25,15,13,193.00
2007,02,25,15,14,193.00
2007,02,25,15,15,193.00
2007,02,25,15,16,434.60
2007,02,25,15,17,420.00
2007,02,25,15,18,420.00
2007,02,25,15,19,333.20
2007,02,25,15,20,164.40
2007,02,25,15,21,152.80
2007,02,25,15,22,148.90
2007,02,25,15,23,153.20
2007,02,25,15,24,200.90
2007,02,25,15,25,252.50
2007,02,25,15,26,288.00
2007,02,25,15,27,288.00
2007,02,25,15,28,256.40
2007,02,25,15,29,221.50
2007,02,25,15,30,208.80
2007,02,25,15,31,163.30
2007,02,25,15,32,131.80
2007,02,25,15,33,114.40
2007,02,25,15,34,107.70
2007,02,25,15,35,76.00
2007,02,25,15,36,68.30
2007,02,25,15,37,52.10
2007,02,25,15,38,53.80
2007,02,25,15,39,56.00
2007,02,25,15,40,69.50
2007,02,25,15,41,76.60
2007,02,25,15,42,83.20
2007,02,25,15,43,90.10
2007,02,25,15,44,105.00
2007,02,25,15,45,114.00
2007,02,25,15,46,114.00
2007,02,25,15,47,114.00
2007,02,25,15,48,118.90
2007,02,25,15,49,121.00
2007,02,25,15,50,103.90
2007,02,25,15,51,72.80
2007,02,25,15,52,61.60
2007,02,25,15,53,62.10
2007,02,25,15,54,69.10
2007,02,25,15,55,86.30
2007,02,25,15,56,94.80
2007,02,25,15,57,97.90
2007,02,25,15,58,104.00
2007,02,25,15,59,105.40
2007,02,25,16,00,115.70
2007,02,25,16,01,125.00
2007,02,25,16,02,126.10
2007,02,25,16,03,124.20
2007,02,25,16,04,113.70
2007,02,25,16,05,105.80
2007,02,25,16,06,98.40
2007,02,25,16,07,95.20
2007,02,25,16,08,95.20
2007,02,25,16,09,95.20
2007,02,25,16,10,85.30
2007,02,25,16,11,79.00
2007,02,25,16,12,74.50
2007,02,25,16,13,70.00
2007,02,25,16,14,72.80
2007,02,25,16,15,74.00
2007,02,25,16,16,65.60
2007,02,25,16,17,58.30
2007,02,25,16,18,62.20
2007,02,25,16,19,69.00
2007,02,25,16,20,72.60
2007,02,25,16,21,78.10
2007,02,25,16,22,80.30
2007,02,25,16,23,82.50
2007,02,25,16,24,85.60
2007,02,25,16,25,85.80
2007,02,25,16,26,79.70
2007,02,25,16,27,71.10
2007,02,25,16,28,69.00
2007,02,25,16,29,69.00
2007,02,25,16,30,69.00
2007,02,25,16,31,64.80
2007,02,25,16,32,67.80
2007,02,25,16,33,69.90
2007,02,25,16,34,63.80
2007,02,25,16,35,51.30
2007,02,25,16,36,43.30
2007,02,25,16,37,41.20
2007,02,25,16,38,35.80
2007,02,25,16,39,30.80
2007,02,25,16,40,27.00
2007,02,25,16,41,21.80
2007,02,25,16,42,23.00
2007,02,25,16,43,26.20
2007,02,25,16,44,29.00
2007,02,25,16,45,34.50
2007,02,25,16,46,42.20
2007,02,25,16,47,48.80
2007,02,25,16,48,51.00
2007,02,25,16,49,54.80
2007,02,25,16,50,56.00
2007,02,25,16,51,53.00
2007,02,25,16,52,50.20
2007,02,25,16,53,46.70
2007,02,25,16,54,45.20
2007,02,25,16,55,44.00
2007,02,25,16,56,45.20
2007,02,25,16,57,46.00
2007,02,25,16,58,46.80
2007,02,25,16,59,48.80
2007,02,25,17,00,49.00
2007,02,25,17,01,49.00
2007,02,25,17,02,48.30
2007,02,25,17,03,47.00
2007,02,25,17,04,47.00
2007,02,25,17,05,47.00
2007,02,25,17,06,44.80
2007,02,25,17,07,42.30
2007,02,25,17,08,41.90
2007,02,25,17,09,39.80
2007,02,25,17,10,39.00
2007,02,25,17,11,38.20
2007,02,25,17,12,37.00
2007,02,25,17,13,37.00
2007,02,25,17,14,35.70
2007,02,25,17,15,35.00
2007,02,25,17,16,33.30
2007,02,25,17,17,33.00
2007,02,25,17,18,32.80
2007,02,25,17,19,31.40
2007,02,25,17,20,30.00
2007,02,25,17,21,28.90
2007,02,25,17,22,28.00
2007,02,25,17,23,26.60
2007,02,25,17,24,26.00
2007,02,25,17,25,26.00
2007,02,25,17,26,25.00
2007,02,25,17,27,24.50
2007,02,25,17,28,23.00
2007,02,25,17,29,22.10
2007,02,25,17,30,19.90